Pecs, Hungary

2:18 AM CEST on May 30, 2017 (GMT +0200)
Pecs

Weather History for LHPP - November, 2012

Change the Weather History Date:

Wednesday, November 21, 2012

  Actual Average Record
Temperature  
Mean Temperature 47 °F -  
Max Temperature 50 °F 41 °F - ()
Min Temperature 44 °F 31 °F - ()
Degree Days  
Heating Degree Days 18    
Moisture  
Dew Point 43 °F    
Average Humidity 88    
Maximum Humidity 93    
Minimum Humidity 72    
Precipitation  
Precipitation 0.00 in 0.06 in - ()
Sea Level Pressure  
Sea Level Pressure 30.19 in    
Wind  
Wind Speed 6 mph ()    
Max Wind Speed 9 mph    
Max Gust Speed -    
Visibility 4.8 miles    
Events Rain    
T = Trace of Precipitation, MM = Missing Value Source: Averaged Metar Reports

Daily Weather History Graph

Daily Weather History Graph

Search for Another Location

Airport or City:

Trip Planner

Search our weather history database for the weather conditions in past years. The results will help you decide how hot, cold, wet, or windy it might be!

Date:

Astronomy

Nov. 21, 2012 Rise Set
Actual Time 6:56 AM CET 4:09 PM CET
Civil Twilight 6:23 AM CET 4:42 PM CET
Nautical Twilight 5:46 AM CET 5:19 PM CET
Astronomical Twilight 5:10 AM CET 5:54 PM CET
Moon 12:36 PM CET (11/21) No Moon Set
Length of Visible Light 10h 19m
Length of Day
9h 13m
First Quarter, 59% of the Moon is Illuminated
Nov 21
First Quarter
Nov 28
Full
Dec 6
Last Quarter
Dec 13
New
Dec 20
First Quarter

Hourly Weather History & Observations

Time (CET) Temp. Windchill Dew Point Humidity Pressure Visibility Wind Dir Wind Speed Gust Speed Precip Events Conditions
12:45 AM 44.6 °F 40.7 °F 41.0 °F 87% 30.21 in 3.7 mi ENE 6.9 mph - N/A   Overcast
1:00 AM 45 °F - 41 °F 80% 30.22 in 4 mi ENE 6.7 mph - -   Partly Cloudy
1:45 AM 44.6 °F 40.7 °F 41.0 °F 87% 30.18 in 3.7 mi ENE 6.9 mph - N/A   Overcast
2:45 AM 44.6 °F 42.2 °F 41.0 °F 87% 30.18 in 3.7 mi East 4.6 mph - N/A   Overcast
3:45 AM 44.6 °F 41.4 °F 41.0 °F 87% 30.18 in 3.7 mi East 5.8 mph - N/A   Overcast
4:45 AM 44.6 °F 40.7 °F 42.8 °F 93% 30.18 in 3.7 mi East 6.9 mph - N/A   Overcast
5:15 AM 44.6 °F 40.7 °F 42.8 °F 93% 30.18 in 3.7 mi East 6.9 mph - N/A   Overcast
5:45 AM 44.6 °F 41.4 °F 42.8 °F 93% 30.18 in 3.7 mi East 5.8 mph - N/A   Overcast
6:00 AM - - - N/A% - 2.2 mi East 6.9 mph - N/A Rain Light Rain
6:15 AM 44.6 °F 40.7 °F 42.8 °F 93% 30.21 in 3.7 mi East 6.9 mph - N/A   Overcast
6:45 AM 44.6 °F 40.2 °F 42.8 °F 93% 30.18 in 3.7 mi East 8.1 mph - N/A   Overcast
7:00 AM 45 °F - 42 °F 85% 30.22 in 4 mi East 8.9 mph - -   Partly Cloudy
7:15 AM 44.6 °F 40.7 °F 42.8 °F 93% 30.21 in 3.7 mi East 6.9 mph - N/A   Overcast
7:45 AM 44.6 °F 40.2 °F 42.8 °F 93% 30.21 in 3.1 mi East 8.1 mph - N/A   Overcast
8:15 AM 44.6 °F 41.4 °F 42.8 °F 93% 30.21 in 3.1 mi East 5.8 mph - N/A   Mostly Cloudy
8:45 AM 44.6 °F 41.4 °F 42.8 °F 93% 30.21 in 3.7 mi East 5.8 mph - N/A   Mostly Cloudy
9:00 AM - - - N/A% - 2.2 mi East 5.8 mph - N/A Rain Light Rain
9:15 AM 46.4 °F 41.9 °F 42.8 °F 87% 30.21 in 4.3 mi East 9.2 mph - N/A   Mostly Cloudy
9:45 AM 46.4 °F 42.4 °F 42.8 °F 87% 30.21 in 5.0 mi East 8.1 mph - N/A   Overcast
10:15 AM 46.4 °F 43.5 °F 42.8 °F 87% 30.21 in 5.0 mi East 5.8 mph - N/A   Mostly Cloudy
10:45 AM 46.4 °F 41.9 °F 42.8 °F 87% 30.21 in 5.0 mi East 9.2 mph - N/A   Mostly Cloudy
11:15 AM 46.4 °F 42.4 °F 42.8 °F 87% 30.21 in 5.6 mi East 8.1 mph - N/A   Mostly Cloudy
11:45 AM 50.0 °F - 44.6 °F 82% 30.18 in 5.0 mi East 6.9 mph - N/A   Mostly Cloudy
12:00 PM - - - N/A% - 5.0 mi East 5.8 mph - N/A   Overcast
12:15 PM 48.2 °F - 42.8 °F 82% 30.18 in 5.0 mi ENE 5.8 mph - N/A   Scattered Clouds
12:45 PM 50.0 °F - 44.6 °F 82% 30.18 in 6.2 mi East 5.8 mph - N/A   Scattered Clouds
1:00 PM 50 °F - 44 °F 72% 30.20 in 6 mi East 6.7 mph - -   Partly Cloudy
1:15 PM 50.0 °F - 44.6 °F 82% 30.18 in 6.2 mi East 6.9 mph - N/A   Scattered Clouds
1:45 PM 50.0 °F - 44.6 °F 82% 30.18 in 6.2 mi ESE 4.6 mph - N/A   Mostly Cloudy
2:15 PM 50.0 °F - 44.6 °F 82% 30.18 in 6.2 mi ESE 6.9 mph - N/A   Mostly Cloudy
2:45 PM 50.0 °F - 44.6 °F 82% 30.18 in 6.2 mi ESE 5.8 mph - N/A   Mostly Cloudy
3:00 PM - - - N/A% - 6.2 mi ESE 5.8 mph - N/A   Overcast
3:15 PM 50.0 °F - 44.6 °F 82% 30.18 in 6.2 mi ESE 6.9 mph - N/A   Mostly Cloudy
3:45 PM 48.2 °F - 44.6 °F 87% 30.18 in 6.2 mi ESE 5.8 mph - N/A   Mostly Cloudy
4:15 PM 48.2 °F - 44.6 °F 87% 30.18 in 5.0 mi ESE 5.8 mph - N/A   Mostly Cloudy
4:45 PM 48.2 °F - 44.6 °F 87% 30.18 in 5.0 mi East 4.6 mph - N/A   Mostly Cloudy
5:15 PM 48.2 °F - 44.6 °F 87% 30.18 in 5.0 mi East 4.6 mph - N/A   Mostly Cloudy
5:45 PM 48.2 °F - 44.6 °F 87% 30.18 in 5.0 mi East 5.8 mph - N/A   Mostly Cloudy
6:15 PM 46.4 °F 43.5 °F 44.6 °F 93% 30.18 in 4.3 mi East 5.8 mph - N/A   Mostly Cloudy
6:45 PM 46.4 °F 43.5 °F 44.6 °F 93% 30.18 in 4.3 mi East 5.8 mph - N/A   Overcast
7:00 PM 47 °F - 45 °F 89% 30.21 in 4 mi East 6.7 mph - -   Partly Cloudy
7:15 PM 46.4 °F 43.5 °F 44.6 °F 93% 30.18 in 6.2 mi East 5.8 mph - N/A   Overcast
7:45 PM 46.4 °F 42.9 °F 44.6 °F 93% 30.18 in 6.2 mi East 6.9 mph - N/A   Overcast
8:15 PM 46.4 °F 42.9 °F 44.6 °F 93% 30.18 in 6.2 mi East 6.9 mph - N/A   Overcast
8:45 PM 46.4 °F 43.5 °F 44.6 °F 93% 30.21 in 6.2 mi East 5.8 mph - N/A   Overcast
9:45 PM 46.4 °F 44.3 °F 44.6 °F 93% 30.21 in 6.2 mi East 4.6 mph - N/A   Overcast
10:45 PM 46.4 °F 44.3 °F 42.8 °F 87% 30.21 in 6.2 mi ESE 4.6 mph - N/A   Overcast
11:45 PM 46.4 °F 45.2 °F 42.8 °F 87% 30.21 in 6.2 mi East 3.5 mph - N/A   Overcast